Date String (YYYY-MM-DD hh:mm:ss) UTC,Instrument flags,absolute air pressure of the measurement (hPa),sample flow rate (lpm),inlet stack bypass flow (lpm),air temperature of the measurement (°C),ambient temperature measured by the external sensor (°C),aerosol sample conditioner tube jacket temperature (°C),OPC LED temperature (°C),internal box temperature (°C),relative humidity of the measurement (%),span deviation,mass concentration of particles derived from Lorenz-Mie calculation of OPC scattering (μg/m³),mass concentration of particles derived from Lorenz-Mie calculation of OPC scattering (μg/m³),mass concentration of particles derived from Lorenz-Mie calculation of OPC scattering (μg/m³)
DateTimeUTC,F1_M11,P_M11,Q1_M11,Q2_M11,T1_M11,T2_M11,T3_M11,T4_M11,T5_M11,U1_M11,ZSPAN_M11,X0_M11,X2_M11,X1_M11
2024-01-13 11:00:00,SystemResetWarning,0820.3,5.00,000.00,019.0,018.1,000.0,027.4,020.0,4.3,0000.0,0005.98,0003.87,0003.60
2024-01-13 11:01:00,SystemResetWarning,0820.3,5.00,000.00,019.0,017.9,000.0,027.5,020.0,4.3,0000.0,0005.84,0003.82,0003.55
2024-01-13 11:02:00,SystemResetWarning,0820.3,5.01,000.00,019.0,018.1,000.0,027.4,020.4,4.3,0000.0,0005.75,0003.79,0003.52
2024-01-13 11:03:00,SystemResetWarning,0820.2,5.01,000.00,019.1,018.8,000.0,027.4,020.8,4.3,0000.0,0005.50,0003.74,0003.49
2024-01-13 11:04:00,SystemResetWarning,0820.2,4.99,000.00,019.2,019.3,000.0,027.4,020.9,4.2,0000.0,0005.21,0003.69,0003.46
2024-01-13 11:05:00,SystemResetWarning,0820.2,4.99,000.00,019.2,019.1,000.0,027.4,020.3,4.2,0000.0,0005.16,0003.67,0003.43
2024-01-13 11:06:00,SystemResetWarning,0820.1,5.01,000.00,019.1,018.7,000.0,027.4,020.0,4.3,0000.0,0005.13,0003.67,0003.43
2024-01-13 11:07:00,SystemResetWarning,0820.2,5.01,000.00,019.0,018.3,000.0,027.4,020.0,4.2,0000.0,0005.07,0003.65,0003.43
2024-01-13 11:08:00,SystemResetWarning,0820.3,5.00,000.00,019.0,018.1,000.0,027.5,020.0,4.2,0000.0,0005.12,0003.66,0003.43
2024-01-13 11:09:00,SystemResetWarning,0820.3,5.00,000.00,018.9,017.8,000.0,027.5,020.0,4.3,0000.5,0005.13,0003.66,0003.44
2024-01-13 11:10:00,SystemResetWarning,0820.3,5.00,000.00,019.0,018.1,000.0,027.4,020.4,4.3,0001.5,0005.08,0003.65,0003.43
2024-01-13 11:11:00,SystemResetWarning,0820.4,5.01,000.00,019.1,018.7,000.0,027.4,020.8,4.3,0002.2,0006.14,0003.65,0003.43
2024-01-13 11:12:00,SystemResetWarning,0820.2,4.99,000.00,019.2,019.2,000.0,027.4,020.9,4.2,0002.3,0006.18,0003.63,0003.42
2024-01-13 11:13:00,SystemResetWarning,0820.0,4.98,000.00,019.2,019.0,000.0,027.4,020.2,4.2,0002.1,0006.12,0003.61,0003.41
2024-01-13 11:14:00,SystemResetWarning,0820.2,5.01,000.00,019.1,018.6,000.0,027.4,020.0,4.2,0002.0,0006.19,0003.61,0003.40
2024-01-13 11:15:00,SystemResetWarning,0820.1,5.00,000.00,019.1,018.3,000.0,027.4,020.0,4.2,0002.2,0006.43,0003.60,0003.38
2024-01-13 11:16:00,SystemResetWarning,0820.2,5.00,000.00,019.0,018.0,000.0,027.4,020.0,4.2,0002.0,0006.56,0003.59,0003.38
2024-01-13 11:17:00,SystemResetWarning,0820.3,5.00,000.00,019.0,017.9,000.0,027.4,020.2,4.2,0001.7,0006.56,0003.58,0003.37
2024-01-13 11:18:00,SystemResetWarning,0820.5,5.00,000.00,019.1,018.4,000.0,027.4,020.6,4.2,0000.8,0006.67,0003.59,0003.35
2024-01-13 11:19:00,SystemResetWarning,0820.9,4.99,000.00,019.2,019.1,000.0,027.4,020.9,4.2,0000.0,0007.00,0003.59,0003.34
2024-01-13 11:20:00,SystemResetWarning,0820.9,4.99,000.00,019.2,019.2,000.0,027.4,020.6,4.1,0000.0,0007.23,0003.58,0003.33
2024-01-13 11:21:00,SystemResetWarning,0820.1,4.99,000.00,019.1,018.8,000.0,027.4,020.1,4.2,0000.0,0007.24,0003.55,0003.32
2024-01-13 11:22:00,SystemResetWarning,0819.8,5.00,000.00,019.0,018.4,000.0,027.4,020.0,4.2,0000.0,0006.52,0003.57,0003.32
2024-01-13 11:23:00,SystemResetWarning,0820.0,5.00,000.00,019.0,018.1,000.0,027.5,020.0,4.2,0000.0,0006.30,0003.58,0003.32
2024-01-13 11:24:00,SystemResetWarning,0820.0,5.01,000.00,019.0,017.9,000.0,027.5,020.1,4.2,0000.0,0006.44,0003.62,0003.33
2024-01-13 11:25:00,SystemResetWarning,0820.6,5.01,000.00,019.0,018.1,000.0,027.4,020.4,4.2,0000.0,0006.50,0003.62,0003.33
2024-01-13 11:26:00,SystemResetWarning,0820.6,5.00,000.00,019.1,018.7,000.0,027.4,020.8,4.2,0000.0,0006.21,0003.61,0003.32
2024-01-13 11:27:00,SystemResetWarning,0820.1,5.00,000.00,019.2,019.2,000.0,027.4,020.8,4.1,0000.0,0006.28,0003.60,0003.31
2024-01-13 11:28:00,SystemResetWarning,0820.0,4.99,000.00,019.2,019.0,000.0,027.4,020.2,4.1,0000.0,0006.38,0003.58,0003.30
2024-01-13 11:29:00,SystemResetWarning,0820.1,5.00,000.00,019.1,018.6,000.0,027.4,020.0,4.2,0000.0,0006.26,0003.55,0003.29
2024-01-13 11:30:00,SystemResetWarning,0819.9,5.00,000.00,019.0,018.2,000.0,027.4,020.0,4.2,0000.0,0005.89,0003.52,0003.28
2024-01-13 11:31:00,SystemResetWarning,0820.1,5.00,000.00,019.0,017.9,000.0,027.4,020.1,4.2,0000.0,0005.57,0003.50,0003.27
2024-01-13 11:32:00,SystemResetWarning,0820.3,5.02,000.00,019.0,018.2,000.0,027.4,020.4,4.2,0000.0,0005.46,0003.50,0003.26
2024-01-13 11:33:00,SystemResetWarning,0820.6,4.99,000.00,019.1,018.9,000.0,027.4,020.9,4.1,0000.0,0005.30,0003.48,0003.26
2024-01-13 11:34:00,SystemResetWarning,0820.7,4.98,000.00,019.3,019.3,000.0,027.4,020.8,4.1,0000.0,0005.32,0003.48,0003.25
2024-01-13 11:35:00,SystemResetWarning,0820.7,5.01,000.00,019.2,019.0,000.0,027.4,020.3,4.1,0000.0,0005.33,0003.46,0003.24
2024-01-13 11:36:00,SystemResetWarning,0820.7,5.00,000.00,019.1,018.6,000.0,027.4,020.0,4.1,0000.0,0005.18,0003.44,0003.24
2024-01-13 11:37:00,SystemResetWarning,0820.5,5.00,000.00,019.0,018.3,000.0,027.4,020.0,4.2,0000.0,0005.27,0003.45,0003.24
2024-01-13 11:38:00,SystemResetWarning,0820.1,5.00,000.00,018.9,018.0,000.0,027.4,020.0,4.1,0000.0,0005.07,0003.44,0003.23
2024-01-13 11:39:00,SystemResetWarning,0820.3,5.01,000.00,019.0,018.0,000.0,027.4,020.3,4.1,0000.0,0004.87,0003.43,0003.22
2024-01-13 11:40:00,SystemResetWarning,0820.6,5.00,000.00,019.1,018.6,000.0,027.4,020.7,4.1,0000.0,0004.87,0003.41,0003.21
2024-01-13 11:41:00,SystemResetWarning,0820.6,5.00,000.00,019.2,019.3,000.0,027.4,021.0,4.1,0000.0,0004.99,0003.43,0003.22
2024-01-13 11:42:00,SystemResetWarning,0820.8,4.99,000.00,019.2,019.2,000.0,027.4,020.6,4.1,0000.0,0005.04,0003.44,0003.22
2024-01-13 11:43:00,SystemResetWarning,0820.6,5.01,000.00,019.1,018.9,000.0,027.4,020.1,4.1,0000.0,0004.99,0003.42,0003.21
2024-01-13 11:44:00,SystemResetWarning,0820.5,5.01,000.00,019.0,018.5,000.0,027.4,020.0,4.1,0000.0,0005.04,0003.40,0003.20
2024-01-13 11:45:00,SystemResetWarning,0820.8,5.00,000.00,019.0,018.2,000.0,027.4,020.0,4.1,0000.0,0005.89,0003.38,0003.19
2024-01-13 11:46:00,SystemResetWarning,0820.6,4.99,000.00,018.9,018.0,000.0,027.4,020.0,4.1,0000.0,0005.84,0003.35,0003.16
2024-01-13 11:47:00,SystemResetWarning,0820.4,5.00,000.00,018.9,017.8,000.0,027.4,020.1,4.1,0000.0,0005.91,0003.34,0003.14
2024-01-13 11:48:00,SystemResetWarning,0820.2,5.01,000.00,019.0,018.2,000.0,027.4,020.5,4.1,0000.0,0005.74,0003.29,0003.11
2024-01-13 11:49:00,SystemResetWarning,0820.5,5.00,000.00,019.1,018.9,000.0,027.4,020.9,4.0,0000.0,0005.68,0003.28,0003.10
2024-01-13 11:50:00,SystemResetWarning,0820.7,5.00,000.00,019.2,019.3,000.0,027.4,020.8,4.0,0000.0,0005.66,0003.26,0003.08
2024-01-13 11:51:00,SystemResetWarning,0820.6,4.99,000.00,019.1,019.0,000.0,027.4,020.2,4.0,0000.0,0005.67,0003.28,0003.05
2024-01-13 11:52:00,SystemResetWarning,0820.7,4.99,000.00,019.0,018.6,000.0,027.4,020.0,4.0,0000.0,0005.57,0003.27,0003.00
2024-01-13 11:53:00,SystemResetWarning,0820.8,5.02,000.00,019.0,018.3,000.0,027.4,020.0,4.0,0000.0,0005.48,0003.24,0002.95
2024-01-13 11:54:00,SystemResetWarning,0820.6,5.01,000.00,019.0,018.0,000.0,027.4,020.0,4.0,0000.0,0005.50,0003.23,0002.93
2024-01-13 11:55:00,SystemResetWarning,0820.6,4.99,000.00,018.9,017.8,000.0,027.4,020.1,4.0,0000.0,0005.24,0003.20,0002.90
2024-01-13 11:56:00,SystemResetWarning,0820.8,5.00,000.00,019.0,018.2,000.0,027.4,020.5,4.0,0000.0,0004.32,0003.19,0002.88
2024-01-13 11:57:00,SystemResetWarning,0820.8,5.00,000.00,019.1,018.9,000.0,027.4,020.9,4.0,0000.0,0004.17,0003.18,0002.87
2024-01-13 11:58:00,SystemResetWarning,0820.8,4.99,000.00,019.2,019.3,000.0,027.4,020.8,4.0,0000.0,0004.02,0003.16,0002.85
2024-01-13 11:59:00,SystemResetWarning,0821.0,4.99,000.00,019.2,019.0,000.0,027.4,020.3,3.9,0000.0,0004.07,0003.17,0002.85
